Home   Weather   Rotterdam   Past weeks

Flag for Netherlands Past Weather in Rotterdam, Netherlands — Yesterday and Last 2 Weeks

Now
45 °F

Clear.


Feels Like: 38 °F
Forecast: 44 / 49 °F
Wind: 13 mph from Southwest

Location: Rotterdam Zestienhoven Airport

Current Time: Dec 8, 2016 at 9:04:46 am

Latest Report: Dec 8, 2016 at 8:25 am


Visibility: N/A

Pressure: 30.33 "Hg

Humidity: 76%

Dew Point: 37 °F

Location of RotterdamLocation

Past Weather in Rotterdam — Graph

°F

Rotterdam Temperature Yesterday

Maximum temperature yesterday: 50 °F (at 2:25 pm)
Minimum temperature yesterday: 39 °F (at 1:25 am)
Average temperature yesterday: 44 °F

High & Low Weather Summary for the Past Weeks

 TemperatureHumidityPressure
High50 °F (Nov 23, 12:55 pm)100% (Nov 23, 7:25 am)30.60 "Hg (Nov 23, 7:25 am)
Low21 °F (Nov 29, 10:55 pm)52% (Nov 29, 2:25 pm)30.01 "Hg (Nov 23, 7:25 am)
Average38 °F86%30.30 "Hg
* Reported Nov 23 7:25 am — Dec 8 7:55 am, Rotterdam, Weather by CustomWeather, © 2016

Note: Actual official high and low records may vary slightly from our data, if they occured in-between our weather recording intervals... More about our weather records

Advertising

Rotterdam Weather History for the Previous 24 Hours

Scroll right to see more
 ConditionsComfort  
Time TempWeatherWind HumidityBarometerVisibility
7:55 am
Thu, Dec 8
45 °FClear.14 mph76%30.33 "HgN/A
7:25 am46 °FClear.16 mph71%30.33 "HgN/A
6:55 am46 °FClear.13 mph71%30.33 "HgN/A
6:25 am45 °FClear.12 mph76%30.33 "HgN/A
5:55 am45 °FClear.12 mph76%30.33 "HgN/A
5:25 am46 °FClear.15 mph71%30.33 "HgN/A
4:55 am45 °FClear.13 mph76%30.33 "HgN/A
3:55 am45 °FClear.12 mph76%30.33 "HgN/A
3:25 am45 °FClear.12 mph76%30.33 "HgN/A
2:25 am45 °FQuite cool.14 mph76%30.33 "HgN/A
1:55 am45 °FClear.13 mph76%30.36 "HgN/A
1:25 am45 °FClear.14 mph76%30.36 "HgN/A
12:55 am45 °FQuite cool.16 mph76%30.33 "HgN/A
12:25 am45 °FClear.13 mph81%30.36 "HgN/A
11:55 pm
Wed, Dec 7
45 °FClear.14 mph81%30.36 "HgN/A
11:25 pm45 °FClear.14 mph81%30.36 "HgN/A
10:55 pm45 °FQuite cool.15 mph81%30.36 "HgN/A
10:25 pm45 °FClear.15 mph81%30.36 "HgN/A
9:55 pm45 °FClear.12 mph81%30.36 "HgN/A
9:25 pm45 °FClear.13 mph87%30.36 "HgN/A
8:55 pm45 °FClear.12 mph87%30.36 "HgN/A
8:25 pm46 °FClear.10 mph82%30.36 "HgN/A
7:55 pm46 °FClear.10 mph82%30.36 "HgN/A
7:25 pm46 °FClear.10 mph82%30.36 "HgN/A
6:55 pm46 °FClear.10 mph82%30.36 "HgN/A
6:25 pm46 °FCool.10 mph82%30.36 "HgN/A
5:55 pm46 °FCool.10 mph82%30.36 "HgN/A
5:25 pm46 °FClear.10 mph82%30.36 "HgN/A
4:55 pm48 °FClear.10 mph76%30.36 "HgN/A
4:25 pm50 °FClear.12 mph71%30.33 "HgN/A
3:55 pm48 °FClear.13 mph82%30.33 "HgN/A
3:25 pm50 °FClear.13 mph76%30.33 "HgN/A
2:55 pm50 °FClear.15 mph76%30.33 "HgN/A
2:25 pm50 °FClear.13 mph76%30.33 "HgN/A
1:55 pm48 °FClear.10 mph76%30.33 "HgN/A
1:25 pm48 °FClear.13 mph76%30.36 "HgN/A
12:55 pm48 °FClear.14 mph76%30.36 "HgN/A
12:25 pm46 °FClear.13 mph82%30.36 "HgN/A
11:55 am46 °FClear.13 mph76%30.36 "HgN/A
11:25 am45 °FClear.14 mph81%30.36 "HgN/A
10:55 am45 °FClear.13 mph81%30.39 "HgN/A
10:25 am45 °FClear.12 mph81%30.39 "HgN/A
9:55 am43 °FClear.10 mph87%30.36 "HgN/A
9:25 am43 °FClear.10 mph81%30.36 "HgN/A
Weather by CustomWeather, © 2016

See weather overviewHow to use our weather pages